Radiation Dose at Monitoring Post of Fukushima Daini Nuclear Power Station
Date,Time,MP-1(microSv/h),MP-2(microSv/h),MP-3(microSv/h),MP-4(microSv/h),MP-5(microSv/h),MP-6(microSv/h),MP-7(microSv/h),Wind Direction,Wind Velocity(m/s),Rain
2019/02/19,00:00,0.218,0.195,0.318,0.297,0.278,0.159,0.096,north-northeast,2.2,No
2019/02/19,00:10,0.216,0.196,0.320,0.297,0.279,0.160,0.095,northeast,1.8,No
2019/02/19,00:20,0.217,0.195,0.319,0.297,0.278,0.159,0.096,northeast,1.5,No
2019/02/19,00:30,0.216,0.195,0.317,0.298,0.278,0.160,0.096,north-northeast,1.0,No
2019/02/19,00:40,0.216,0.196,0.317,0.297,0.278,0.158,0.095,-,CALM,No
2019/02/19,00:50,0.216,0.195,0.319,0.297,0.279,0.159,0.096,east,1.0,No
2019/02/19,01:00,0.216,0.196,0.318,0.297,0.278,0.159,0.096,east-southeast,0.7,No
2019/02/19,01:10,0.216,0.196,0.319,0.297,0.279,0.159,0.096,east-southeast,0.9,No
2019/02/19,01:20,0.217,0.195,0.317,0.298,0.279,0.159,0.095,east-southeast,1.0,No
2019/02/19,01:30,0.216,0.196,0.318,0.297,0.279,0.159,0.095,east,0.6,No
2019/02/19,01:40,0.217,0.195,0.319,0.296,0.277,0.159,0.096,east-northeast,0.8,No
2019/02/19,01:50,0.217,0.196,0.318,0.298,0.277,0.160,0.096,-,CALM,No
2019/02/19,02:00,0.217,0.196,0.319,0.297,0.279,0.159,0.095,north-northwest,0.7,No
2019/02/19,02:10,0.217,0.196,0.319,0.298,0.277,0.160,0.096,north,1.3,No
2019/02/19,02:20,0.217,0.195,0.319,0.297,0.279,0.160,0.096,north-northwest,1.4,No
2019/02/19,02:30,0.216,0.196,0.319,0.297,0.277,0.159,0.096,north,1.0,No
2019/02/19,02:40,0.216,0.195,0.319,0.296,0.277,0.159,0.096,-,CALM,No
2019/02/19,02:50,0.217,0.195,0.318,0.295,0.277,0.159,0.096,west-northwest,1.0,No
2019/02/19,03:00,0.216,0.195,0.319,0.298,0.278,0.159,0.096,west-northwest,1.2,No
2019/02/19,03:10,0.216,0.196,0.318,0.297,0.276,0.159,0.095,west-northwest,0.7,No
2019/02/19,03:20,0.216,0.196,0.319,0.297,0.276,0.159,0.096,west,1.8,No
2019/02/19,03:30,0.217,0.196,0.318,0.296,0.278,0.158,0.096,west,1.6,No
2019/02/19,03:40,0.216,0.196,0.320,0.296,0.276,0.159,0.096,west,1.2,No
2019/02/19,03:50,0.215,0.196,0.318,0.296,0.276,0.159,0.095,west-southwest,0.8,No
2019/02/19,04:00,0.216,0.195,0.319,0.297,0.278,0.158,0.096,west-northwest,1.2,No
2019/02/19,04:10,0.216,0.195,0.318,0.297,0.277,0.158,0.096,west,0.7,No
2019/02/19,04:20,0.218,0.196,0.318,0.297,0.276,0.160,0.096,-,CALM,No
2019/02/19,04:30,0.217,0.196,0.319,0.296,0.277,0.160,0.096,-,CALM,No
2019/02/19,04:40,0.216,0.196,0.318,0.298,0.279,0.160,0.096,west-southwest,0.7,No
2019/02/19,04:50,0.216,0.196,0.319,0.297,0.278,0.159,0.096,-,CALM,No
2019/02/19,05:00,0.217,0.196,0.318,0.297,0.278,0.159,0.096,south,0.7,No
2019/02/19,05:10,0.217,0.195,0.319,0.297,0.277,0.159,0.096,southwest,0.6,No
2019/02/19,05:20,0.217,0.195,0.318,0.296,0.277,0.158,0.096,west-southwest,1.7,No
2019/02/19,05:30,0.217,0.196,0.318,0.297,0.278,0.160,0.095,southwest,1.7,No
2019/02/19,05:40,0.217,0.196,0.319,0.298,0.277,0.158,0.097,-,CALM,No
2019/02/19,05:50,0.217,0.194,0.319,0.297,0.278,0.160,0.095,-,CALM,No
2019/02/19,06:00,0.217,0.195,0.319,0.296,0.278,0.159,0.095,southwest,0.6,No
2019/02/19,06:10,0.217,0.196,0.318,0.297,0.277,0.159,0.096,-,CALM,No
2019/02/19,06:20,0.216,0.197,0.319,0.297,0.277,0.159,0.096,-,CALM,No
2019/02/19,06:30,0.216,0.196,0.318,0.297,0.278,0.159,0.096,-,CALM,No
2019/02/19,06:40,0.217,0.195,0.319,0.297,0.277,0.159,0.096,-,CALM,No
2019/02/19,06:50,0.215,0.196,0.319,0.295,0.278,0.160,0.096,north-northeast,0.8,No
2019/02/19,07:00,0.217,0.196,0.319,0.296,0.279,0.159,0.096,north-northeast,0.9,No
2019/02/19,07:10,0.216,0.196,0.318,0.297,0.279,0.159,0.095,north-northwest,0.8,No
2019/02/19,07:20,0.216,0.194,0.318,0.297,0.278,0.159,0.096,west-northwest,1.5,No
2019/02/19,07:30,0.218,0.195,0.318,0.297,0.278,0.160,0.096,west,1.4,No
2019/02/19,07:40,0.217,0.196,0.318,0.297,0.278,0.159,0.095,west,0.7,No
2019/02/19,07:50,0.217,0.195,0.318,0.296,0.278,0.160,0.096,west-northwest,0.7,No
2019/02/19,08:00,0.216,0.196,0.318,0.297,0.279,0.159,0.096,-,CALM,No
2019/02/19,08:10,0.216,0.196,0.318,0.297,0.277,0.158,0.096,-,CALM,No
2019/02/19,08:20,0.218,0.197,0.319,0.296,0.277,0.160,0.096,-,CALM,No
2019/02/19,08:30,0.216,0.195,0.318,0.296,0.279,0.158,0.095,northwest,0.8,No
2019/02/19,08:40,0.216,0.196,0.319,0.297,0.279,0.158,0.096,north-northwest,1.0,No
2019/02/19,08:50,0.217,0.195,0.319,0.296,0.277,0.159,0.096,north-northwest,0.7,No
2019/02/19,09:00,0.216,0.195,0.318,0.295,0.279,0.160,0.095,northwest,1.4,No
2019/02/19,09:10,0.215,0.195,0.318,0.297,0.278,0.160,0.095,west-northwest,2.0,No
2019/02/19,09:20,0.216,0.194,0.319,0.297,0.280,0.160,0.095,northwest,2.3,No
2019/02/19,09:30,0.217,0.195,0.317,0.296,0.278,0.158,0.096,northwest,2.7,No
2019/02/19,09:40,0.215,0.195,0.318,0.296,0.277,0.160,0.095,northwest,2.6,No
2019/02/19,09:50,0.216,0.195,0.318,0.296,0.279,0.159,0.095,northwest,1.3,No
2019/02/19,10:00,0.215,0.197,0.318,0.295,0.277,0.158,0.095,north,1.3,No
2019/02/19,10:10,0.216,0.195,0.320,0.296,0.280,0.158,0.095,north,1.2,No
2019/02/19,10:20,0.215,0.197,0.317,0.297,0.277,0.158,0.095,north-northwest,1.4,No
2019/02/19,10:30,0.214,0.194,0.317,0.296,0.278,0.157,0.095,north-northwest,1.4,No
2019/02/19,10:40,0.216,0.194,0.318,0.295,0.277,0.157,0.095,north-northeast,0.9,No
2019/02/19,10:50,0.214,0.195,0.316,0.296,0.280,0.159,0.096,north-northeast,1.6,No
2019/02/19,11:00,0.214,0.195,0.318,0.296,0.277,0.158,0.095,north-northeast,1.3,No
2019/02/19,11:10,0.215,0.196,0.317,0.296,0.277,0.159,0.095,north,1.3,No
2019/02/19,11:20,0.214,0.195,0.318,0.296,0.278,0.159,0.096,north,1.0,No
2019/02/19,11:30,0.215,0.195,0.318,0.295,0.278,0.158,0.094,north-northeast,1.5,No
2019/02/19,11:40,0.215,0.195,0.316,0.297,0.278,0.158,0.096,north-northeast,1.6,No
2019/02/19,11:50,0.215,0.195,0.318,0.295,0.277,0.159,0.095,north-northeast,1.9,No
2019/02/19,12:00,0.216,0.195,0.317,0.296,0.281,0.159,0.095,north-northeast,2.7,No
2019/02/19,12:10,0.216,0.196,0.318,0.296,0.277,0.159,0.095,north-northeast,2.5,No
2019/02/19,12:20,0.216,0.195,0.320,0.296,0.280,0.159,0.096,north-northeast,1.6,No
2019/02/19,12:30,0.216,0.195,0.317,0.297,0.279,0.160,0.095,north-northeast,2.5,No
2019/02/19,12:40,0.216,0.195,0.320,0.296,0.276,0.158,0.094,north,2.4,No
2019/02/19,12:50,0.217,0.194,0.317,0.297,0.279,0.159,0.095,north-northeast,1.6,No
2019/02/19,13:00,0.216,0.196,0.318,0.296,0.278,0.159,0.096,north-northeast,1.7,No
2019/02/19,13:10,0.216,0.195,0.318,0.294,0.280,0.159,0.096,north-northeast,3.0,No
2019/02/19,13:20,0.215,0.195,0.315,0.297,0.278,0.159,0.095,northeast,2.5,No
2019/02/19,13:30,0.216,0.195,0.318,0.295,0.278,0.159,0.095,north-northeast,2.6,No
2019/02/19,13:40,0.216,0.195,0.318,0.298,0.279,0.158,0.095,east-northeast,2.1,No
2019/02/19,13:50,0.215,0.195,0.317,0.297,0.277,0.159,0.095,east,1.7,No
2019/02/19,14:00,0.216,0.196,0.318,0.296,0.280,0.159,0.096,east,1.5,Yes
2019/02/19,14:10,0.215,0.196,0.318,0.297,0.278,0.159,0.096,east-northeast,1.0,Yes
2019/02/19,14:20,0.215,0.196,0.318,0.295,0.279,0.160,0.095,east,0.8,Yes
2019/02/19,14:30,0.216,0.196,0.320,0.296,0.278,0.160,0.095,south-southeast,1.2,Yes
2019/02/19,14:40,0.216,0.195,0.318,0.296,0.279,0.160,0.096,east-southeast,1.2,Yes
2019/02/19,14:50,0.216,0.197,0.319,0.295,0.281,0.160,0.096,-,CALM,Yes
2019/02/19,15:00,0.217,0.196,0.318,0.298,0.279,0.160,0.096,south-southeast,1.5,Yes
2019/02/19,15:10,0.216,0.195,0.319,0.299,0.279,0.160,0.097,south-southeast,1.5,Yes
2019/02/19,15:20,0.218,0.198,0.321,0.297,0.280,0.161,0.097,southeast,2.3,Yes
2019/02/19,15:30,0.218,0.197,0.318,0.299,0.279,0.160,0.097,south,3.6,Yes
2019/02/19,15:40,0.217,0.198,0.319,0.298,0.282,0.162,0.097,south,4.1,Yes
2019/02/19,15:50,0.218,0.199,0.321,0.298,0.280,0.163,0.099,south-southwest,5.4,Yes
2019/02/19,16:00,0.219,0.199,0.320,0.301,0.282,0.163,0.099,south,5.7,Yes
2019/02/19,16:10,0.219,0.199,0.323,0.301,0.283,0.162,0.100,south,5.3,Yes
2019/02/19,16:20,0.219,0.200,0.322,0.300,0.282,0.165,0.100,south,5.0,Yes
2019/02/19,16:30,0.219,0.199,0.322,0.301,0.282,0.164,0.101,south,5.0,Yes
2019/02/19,16:40,0.220,0.200,0.320,0.301,0.283,0.165,0.101,south,4.7,Yes
2019/02/19,16:50,0.220,0.201,0.321,0.300,0.282,0.165,0.101,south,5.2,Yes
2019/02/19,17:00,0.221,0.199,0.320,0.300,0.282,0.165,0.102,south,4.7,Yes
2019/02/19,17:10,0.219,0.200,0.322,0.301,0.282,0.166,0.101,south-southwest,4.6,Yes
2019/02/19,17:20,0.221,0.201,0.322,0.299,0.281,0.165,0.102,west-southwest,2.7,Yes
2019/02/19,17:30,0.221,0.199,0.319,0.299,0.281,0.164,0.101,southwest,3.3,Yes
2019/02/19,17:40,0.221,0.200,0.320,0.299,0.280,0.163,0.101,southwest,2.4,Yes
2019/02/19,17:50,0.220,0.199,0.319,0.299,0.279,0.165,0.101,south,2.1,Yes
2019/02/19,18:00,0.219,0.199,0.320,0.298,0.279,0.163,0.101,south-southwest,5.1,Yes
2019/02/19,18:10,0.219,0.198,0.318,0.296,0.280,0.163,0.100,south-southwest,4.6,Yes
2019/02/19,18:20,0.219,0.198,0.316,0.298,0.279,0.164,0.100,south-southwest,2.6,Yes
2019/02/19,18:30,0.218,0.197,0.318,0.296,0.279,0.163,0.100,east-southeast,2.3,Yes
2019/02/19,18:40,0.217,0.197,0.316,0.296,0.279,0.162,0.099,southeast,4.2,Yes
2019/02/19,18:50,0.218,0.197,0.316,0.298,0.278,0.162,0.099,south-southeast,4.6,Yes
2019/02/19,19:00,0.216,0.196,0.317,0.296,0.278,0.160,0.099,south-southeast,6.6,Yes
2019/02/19,19:10,0.217,0.197,0.317,0.296,0.278,0.162,0.099,south,5.3,Yes
2019/02/19,19:20,0.217,0.197,0.317,0.296,0.278,0.160,0.099,south,4.7,Yes
2019/02/19,19:30,0.216,0.196,0.316,0.297,0.278,0.162,0.099,south,3.2,Yes
2019/02/19,19:40,0.217,0.197,0.317,0.295,0.279,0.161,0.099,south-southwest,4.4,Yes
2019/02/19,19:50,0.218,0.197,0.316,0.294,0.278,0.162,0.099,south,4.7,Yes
2019/02/19,20:00,0.217,0.196,0.316,0.296,0.277,0.163,0.099,south,8.4,Yes
2019/02/19,20:10,0.216,0.196,0.314,0.295,0.277,0.161,0.099,south,9.3,Yes
2019/02/19,20:20,0.216,0.195,0.316,0.293,0.276,0.161,0.097,south,8.2,Yes
2019/02/19,20:30,0.215,0.195,0.314,0.294,0.277,0.159,0.097,south,7.9,Yes
2019/02/19,20:40,0.214,0.195,0.313,0.293,0.276,0.160,0.098,south,7.6,No
2019/02/19,20:50,0.215,0.195,0.314,0.293,0.277,0.159,0.096,south-southeast,7.3,No
2019/02/19,21:00,0.215,0.193,0.313,0.291,0.274,0.159,0.097,south,8.4,No
2019/02/19,21:10,0.214,0.192,0.312,0.292,0.275,0.158,0.096,south,10.9,No
2019/02/19,21:20,0.213,0.193,0.314,0.294,0.274,0.157,0.095,south-southeast,9.3,No
2019/02/19,21:30,0.213,0.192,0.311,0.292,0.274,0.158,0.095,south-southeast,10.9,No
2019/02/19,21:40,0.213,0.191,0.312,0.292,0.275,0.157,0.095,south,12.0,No
2019/02/19,21:50,0.213,0.193,0.312,0.290,0.275,0.157,0.095,south-southeast,9.8,No
2019/02/19,22:00,0.213,0.192,0.310,0.291,0.275,0.157,0.094,south-southeast,9.2,No
2019/02/19,22:10,0.212,0.192,0.311,0.291,0.275,0.157,0.094,south,5.7,No
2019/02/19,22:20,0.213,0.194,0.313,0.292,0.275,0.157,0.095,west-southwest,2.3,No
2019/02/19,22:30,0.213,0.192,0.311,0.291,0.274,0.158,0.095,west,3.2,No
2019/02/19,22:40,0.213,0.192,0.311,0.291,0.274,0.157,0.094,west-southwest,2.1,Yes
2019/02/19,22:50,0.214,0.193,0.312,0.291,0.276,0.157,0.094,west,2.1,No
2019/02/19,23:00,0.211,0.192,0.312,0.291,0.274,0.157,0.095,north-northwest,2.5,Yes
2019/02/19,23:10,0.213,0.192,0.311,0.291,0.274,0.158,0.094,north-northwest,2.8,Yes
2019/02/19,23:20,0.213,0.194,0.313,0.291,0.275,0.157,0.094,north-northwest,2.9,No
2019/02/19,23:30,0.213,0.191,0.311,0.291,0.275,0.157,0.094,north-northwest,4.2,No
2019/02/19,23:40,0.212,0.192,0.311,0.291,0.274,0.157,0.094,north-northwest,4.6,No
2019/02/19,23:50,0.213,0.195,0.312,0.291,0.274,0.157,0.095,north-northwest,4.0,No
